Weather History for Meadville, PA

Change the Weather History Date:

Tuesday, February 19, 2013

  Actual Average Record
Temperature  
Mean Temperature 30 °F -  
Max Temperature 44 °F 39 °F 59 °F (1949)
Min Temperature 17 °F 18 °F -7 °F (1993)
Degree Days  
Heating Degree Days 34    
Moisture  
Dew Point 23 °F    
Average Humidity 79    
Maximum Humidity 93    
Minimum Humidity 49    
Precipitation  
Precipitation 0.31 in - - ()
Sea Level Pressure  
Sea Level Pressure 29.73 in    
Wind  
Wind Speed 13 mph (SW)    
Max Wind Speed 23 mph    
Max Gust Speed 34 mph    
Visibility 4 miles    
Events Fog , Rain , Snow    
Averages and records for this station are not official NWS values.
T = Trace of Precipitation, MM = Missing Value Source: NWS Daily Summary

Daily Weather History Graph

Daily Weather History Graph

Search for Another Location

Airport:

Trip Planner

Search our weather history database for the weather conditions in past years. The results will help you decide how hot, cold, wet, or windy it might be!

Date:

Astronomy

Feb. 19, 2013 Rise Set
Actual Time 7:10 AM EST 5:59 PM EST
Civil Twilight 6:42 AM EST 6:27 PM EST
Nautical Twilight 6:09 AM EST 7:00 PM EST
Astronomical Twilight 5:37 AM EST 7:32 PM EST
Moon 12:27 PM EST (2/19) 2:43 AM EST (2/19)
Length of Visible Light 11h 45m
Length of Day
10h 49m
Waxing Gibbous, 67% of the Moon is Illuminated
Feb 19
Waxing Gibbous
Feb 25
Full
Mar 4
Last Quarter
Mar 11
New
Mar 19
First Quarter

Hourly Weather History & Observations

Time (EST) Temp. Windchill Dew Point Humidity Pressure Visibility Wind Dir Wind Speed Gust Speed Precip Events Conditions
12:53 AM 44.1 °F 39.5 °F 26.1 °F 49% 29.81 in 10.0 mi South 8.1 mph 17.3 mph N/A   Clear
1:53 AM 43.0 °F 38.8 °F 26.1 °F 51% 29.78 in 10.0 mi Variable 6.9 mph 18.4 mph N/A   Partly Cloudy
2:53 AM 43.0 °F 36.4 °F 27.0 °F 53% 29.77 in 10.0 mi SSW 12.7 mph 20.7 mph 0.00 in Rain Light Rain
3:13 AM 37.4 °F 29.3 °F 33.8 °F 87% 29.75 in 4.0 mi South 12.7 mph 29.9 mph 0.04 in Rain Light Rain
3:41 AM 37.4 °F 32.1 °F 33.8 °F 87% 29.73 in 9.0 mi Variable 6.9 mph - 0.08 in Rain Light Rain
3:53 AM 37.0 °F 31.0 °F 34.0 °F 89% 29.75 in 7.0 mi South 8.1 mph - 0.10 in Rain Light Rain
4:53 AM 37.9 °F 32.1 °F 35.1 °F 89% 29.70 in 9.0 mi SSE 8.1 mph - 0.05 in Rain Light Rain
5:53 AM 37.9 °F 30.9 °F 35.1 °F 89% 29.67 in 10.0 mi South 10.4 mph 21.9 mph 0.04 in Rain Light Rain
6:53 AM 37.0 °F 29.8 °F 34.0 °F 89% 29.65 in 9.0 mi South 10.4 mph 24.2 mph 0.04 in Rain Light Rain
7:33 AM 37.4 °F 28.9 °F 35.6 °F 93% 29.61 in 8.0 mi South 13.8 mph 23.0 mph 0.01 in Rain Light Rain
7:53 AM 37.9 °F 29.6 °F 35.1 °F 89% 29.64 in 10.0 mi South 13.8 mph 26.5 mph 0.02 in Rain Light Rain
8:53 AM 39.0 °F 30.6 °F 35.1 °F 86% 29.62 in 8.0 mi South 15.0 mph 28.8 mph 0.00 in Rain Light Rain
9:53 AM 39.0 °F 29.9 °F 36.0 °F 89% 29.60 in 9.0 mi SSW 17.3 mph 25.3 mph 0.01 in Rain Light Rain
10:33 AM 39.2 °F 31.6 °F 35.6 °F 87% 29.59 in 4.0 mi SW 12.7 mph 20.7 mph 0.03 in Rain Light Rain
10:53 AM 37.9 °F 33.5 °F 35.1 °F 89% 29.62 in 10.0 mi SW 5.8 mph - 0.04 in Rain Light Rain
11:51 AM 33.8 °F 23.5 °F 30.2 °F 87% 29.62 in 10.0 mi WSW 16.1 mph 27.6 mph 0.01 in   Overcast
11:53 AM 34.0 °F 22.4 °F 30.0 °F 85% 29.64 in 10.0 mi WSW 20.7 mph 27.6 mph 0.01 in   Overcast
1:11 PM 32.0 °F 20.5 °F 26.6 °F 80% 29.63 in 6.0 mi WSW 18.4 mph 25.3 mph N/A   Haze
1:23 PM 30.2 °F 18.5 °F 24.8 °F 80% 29.63 in 6.0 mi SW 17.3 mph 32.2 mph N/A   Haze
1:37 PM 30.2 °F 17.8 °F 24.8 °F 80% 29.64 in 7.0 mi WSW 19.6 mph 32.2 mph N/A   Overcast
1:53 PM 30.0 °F 16.6 °F 23.0 °F 75% 29.68 in 9.0 mi WSW 23.0 mph 29.9 mph N/A   Overcast
2:38 PM 28.4 °F 15.1 °F 21.2 °F 74% 29.67 in 1.8 mi WSW 20.7 mph 31.1 mph 0.00 in Snow Light Snow
2:53 PM 28.9 °F 17.3 °F 21.0 °F 72% 29.70 in 4.0 mi WSW 16.1 mph 32.2 mph 0.00 in Snow Light Snow
3:02 PM 28.4 °F 19.1 °F 19.4 °F 69% 29.68 in 6.0 mi SW 10.4 mph 26.5 mph 0.00 in Snow Light Snow
3:25 PM 28.4 °F 19.7 °F 21.2 °F 74% 29.68 in 1.8 mi SW 9.2 mph 27.6 mph 0.00 in Snow Light Snow
3:32 PM 28.4 °F 16.6 °F 19.4 °F 69% 29.68 in 1.5 mi WSW 16.1 mph 24.2 mph 0.00 in Snow Light Snow
3:42 PM 28.4 °F 20.4 °F 21.2 °F 74% 29.69 in 0.8 mi SW 8.1 mph 23.0 mph 0.00 in Snow Light Snow
3:47 PM 28.4 °F 19.1 °F 21.2 °F 74% 29.69 in 2.0 mi SW 10.4 mph - 0.00 in Snow Light Snow
3:53 PM 28.0 °F 20.0 °F 21.9 °F 78% 29.72 in 5.0 mi SW 8.1 mph 18.4 mph 0.00 in   Haze
3:58 PM 28.4 °F 18.5 °F 21.2 °F 74% 29.69 in 1.8 mi SW 11.5 mph 18.4 mph 0.00 in Snow Light Snow
4:10 PM 28.4 °F 19.7 °F 23.0 °F 80% 29.69 in 0.5 mi SW 9.2 mph 19.6 mph 0.00 in Snow Snow
4:17 PM 26.6 °F 16.8 °F 23.0 °F 86% 29.69 in 0.5 mi SW 10.4 mph 18.4 mph 0.00 in Fog , Snow Snow
4:27 PM 26.6 °F 16.8 °F 23.0 °F 86% 29.70 in 0.2 mi WSW 10.4 mph 20.7 mph 0.00 in Fog , Snow Snow
4:35 PM 26.6 °F 14.3 °F 23.0 °F 86% 29.71 in 0.2 mi WSW 16.1 mph 28.8 mph 0.00 in Fog , Snow Light Snow
4:46 PM 26.6 °F 12.4 °F 19.4 °F 74% 29.72 in 0.8 mi WSW 21.9 mph 31.1 mph 0.00 in Snow Light Snow
4:53 PM 26.1 °F 14.5 °F 19.9 °F 78% 29.76 in 1.5 mi WSW 13.8 mph 31.1 mph 0.00 in Snow Light Snow
5:08 PM 26.6 °F 14.7 °F 17.6 °F 69% 29.73 in 2.5 mi WSW 15.0 mph 31.1 mph 0.00 in Snow Light Snow
5:30 PM 26.6 °F 15.2 °F 17.6 °F 69% 29.73 in 2.5 mi WSW 13.8 mph 26.5 mph 0.00 in Snow Light Snow
5:40 PM 26.6 °F 16.8 °F 19.4 °F 74% 29.74 in 1.2 mi WSW 10.4 mph 20.7 mph 0.00 in Snow Light Snow
5:53 PM 25.0 °F 13.6 °F 19.9 °F 81% 29.79 in 0.8 mi WSW 12.7 mph 21.9 mph 0.00 in Snow Light Snow
6:09 PM 24.8 °F 12.9 °F 19.4 °F 80% 29.76 in 1.5 mi WSW 13.8 mph 24.2 mph 0.00 in Snow Light Snow
6:15 PM 24.8 °F 10.3 °F 19.4 °F 80% 29.76 in 2.0 mi WSW 20.7 mph 27.6 mph 0.00 in Snow Light Snow
6:25 PM 24.8 °F 12.4 °F 19.4 °F 80% 29.77 in 0.8 mi West 15.0 mph 25.3 mph 0.00 in Snow Light Snow
7:27 PM 23.0 °F 11.7 °F 19.4 °F 86% 29.80 in 0.8 mi WSW 11.5 mph 24.2 mph 0.00 in Snow Light Snow
7:53 PM 23.0 °F 11.1 °F 19.0 °F 85% 29.84 in 0.8 mi West 12.7 mph - 0.00 in Snow Light Snow
8:07 PM 21.2 °F 9.5 °F 19.4 °F 93% 29.80 in 0.5 mi WSW 11.5 mph 17.3 mph 0.00 in Fog , Snow Snow
8:26 PM 21.2 °F 6.4 °F 17.6 °F 86% 29.81 in 0.8 mi WSW 18.4 mph 25.3 mph 0.00 in Snow Light Snow
8:38 PM 21.2 °F 6.8 °F 15.8 °F 80% 29.81 in 3.0 mi WSW 17.3 mph 28.8 mph 0.00 in Snow Light Snow
8:49 PM 21.2 °F 5.6 °F 14.0 °F 74% 29.81 in 2.5 mi WSW 20.7 mph 27.6 mph 0.00 in Snow Light Snow
8:53 PM 21.0 °F 5.4 °F 14.0 °F 74% 29.86 in 1.8 mi WSW 20.7 mph 28.8 mph 0.00 in Snow Light Snow
9:06 PM 19.4 °F 4.1 °F 14.0 °F 80% 29.82 in 1.0 mi SW 18.4 mph 34.5 mph 0.00 in Snow Light Snow
9:37 PM 19.4 °F 5.0 °F 14.0 °F 80% 29.84 in 0.8 mi WSW 16.1 mph 27.6 mph 0.00 in Snow Light Snow
9:47 PM 19.4 °F 4.5 °F 12.2 °F 74% 29.84 in 1.5 mi West 17.3 mph 27.6 mph 0.00 in Snow Light Snow
9:53 PM 19.0 °F 3.6 °F 12.0 °F 74% 29.88 in 3.0 mi WSW 18.4 mph - 0.00 in   Haze
10:53 PM 18.0 °F 2.6 °F 10.9 °F 74% 29.89 in 2.0 mi WSW 17.3 mph 26.5 mph 0.00 in Snow Light Snow
11:08 PM 17.6 °F 2.7 °F 10.4 °F 73% 29.84 in 4.0 mi WSW 16.1 mph 24.2 mph 0.00 in   Haze
11:30 PM 17.6 °F 3.7 °F 10.4 °F 73% 29.84 in 8.0 mi WSW 13.8 mph 25.3 mph 0.00 in   Overcast
11:49 PM 17.6 °F 4.3 °F 10.4 °F 73% 29.84 in 1.8 mi WSW 12.7 mph 27.6 mph 0.00 in Snow Light Snow
11:50 PM 18.0 °F 4.2 °F 12.0 °F 78% 29.89 in 1.5 mi WSW 13.8 mph 27.6 mph 0.00 in Snow Light Snow